When you browse on this site, cookies collect data to enhance your experience and personalize the content and advertising you see.
Visit our Privacy Policy to learn more. By continuing to use the site, you agree to this use of cookies and data.
  • In Czech Republic
  • List of Countries
  • For 7 days
  • Water Temperature
  • Satellite Maps
  • Weather Map
  • Weather Widgets
  • user-avatar
    Login

    Hourly Weather Namyur

    Today, 19 November, Monday

    Time Temperature Precipitation Wind Pressure Humidity
    00:00 -2°C° 0 mm 4 mps 756 mmHg 58%
    01:00 -2°C° 0 mm 4 mps 756 mmHg 64%
    02:00 -2°C° 0 mm 5 mps 755 mmHg 70%
    03:00 -2°C° 0 mm 5 mps 755 mmHg 77%
    04:00 -1°C° 0 mm 5 mps 755 mmHg 81%
    05:00 -1°C° 0 mm 5 mps 754 mmHg 85%
    06:00 -1°C° 0 mm 4 mps 754 mmHg 92%
    07:00 0°C° 0 mm 5 mps 754 mmHg 87%
    08:00 +1°C° 0 mm 6 mps 753 mmHg 83%
    09:00 +2°C° 0 mm 6 mps 753 mmHg 79%
    10:00 +2°C° 0 mm 6 mps 752 mmHg 76%
    11:00 +3°C° 0 mm 7 mps 752 mmHg 73%
    12:00 +3°C° 0 mm 7 mps 751 mmHg 70%
    13:00 +3°C° 0.1 mm 6 mps 751 mmHg 69%
    14:00 +3°C° 0.1 mm 6 mps 750 mmHg 68%
    15:00 +3°C° 0.1 mm 6 mps 750 mmHg 68%
    16:00 +2°C° 0 mm 6 mps 750 mmHg 70%
    17:00 +1°C° 0 mm 6 mps 749 mmHg 73%
    18:00 +1°C° 0 mm 5 mps 749 mmHg 75%
    19:00 0°C° 0 mm 5 mps 749 mmHg 75%
    20:00 0°C° 0 mm 5 mps 749 mmHg 75%
    21:00 -1°C° 0 mm 6 mps 749 mmHg 75%
    22:00 -1°C° 0 mm 6 mps 748 mmHg 74%
    23:00 -1°C° 0 mm 6 mps 748 mmHg 74%

    Tomorrow, 20 November, Tuesday

    Time Temperature Precipitation Wind Pressure Humidity
    00:00 -1°C° 0 mm 6 mps 748 mmHg 73%
    01:00 -1°C° 0 mm 6 mps 747 mmHg 73%
    02:00 -2°C° 0 mm 6 mps 747 mmHg 74%
    03:00 -2°C° 0 mm 6 mps 746 mmHg 75%
    04:00 -2°C° 0 mm 6 mps 746 mmHg 75%
    05:00 -1°C° 0 mm 5 mps 746 mmHg 75%
    06:00 -1°C° 0 mm 5 mps 745 mmHg 75%
    07:00 -2°C° 0 mm 6 mps 745 mmHg 72%
    08:00 -1°C° 0 mm 6 mps 745 mmHg 70%
    09:00 -1°C° 0 mm 6 mps 745 mmHg 67%
    10:00 +1°C° 0 mm 6 mps 745 mmHg 66%
    11:00 +2°C° 0 mm 6 mps 744 mmHg 64%
    12:00 +2°C° 0 mm 6 mps 744 mmHg 62%
    13:00 +2°C° 0 mm 5 mps 744 mmHg 64%
    14:00 +2°C° 0 mm 5 mps 744 mmHg 66%
    15:00 +3°C° 0 mm 4 mps 744 mmHg 67%
    16:00 +3°C° 0 mm 4 mps 744 mmHg 71%
    17:00 +1°C° 0 mm 4 mps 744 mmHg 74%
    18:00 +1°C° 0 mm 4 mps 744 mmHg 78%
    19:00 +1°C° 0 mm 4 mps 744 mmHg 79%
    20:00 +1°C° 0 mm 4 mps 745 mmHg 79%
    21:00 +1°C° 0 mm 4 mps 745 mmHg 80%
    22:00 +2°C° 0 mm 3 mps 745 mmHg 81%
    23:00 +1°C° 0 mm 3 mps 745 mmHg 82%

    Day after tomorrow, 21 November, Wednesday

    Time Temperature Precipitation Wind Pressure Humidity
    00:00 +1°C° 0 mm 3 mps 746 mmHg 82%
    01:00 +1°C° 0 mm 3 mps 746 mmHg 84%
    02:00 +1°C° 0 mm 2 mps 746 mmHg 86%
    03:00 +1°C° 0 mm 2 mps 747 mmHg 88%
    04:00 +1°C° 0 mm 2 mps 747 mmHg 88%
    05:00 +1°C° 0 mm 2 mps 748 mmHg 88%
    06:00 -1°C° 0 mm 2 mps 748 mmHg 88%
    07:00 +2°C° 0 mm 1 mps 749 mmHg 84%
    08:00 +3°C° 0 mm 1 mps 750 mmHg 80%
    09:00 +4°C° 0 mm 1 mps 750 mmHg 75%
    10:00 +5°C° 0 mm 1 mps 751 mmHg 72%
    11:00 +7°C° 0 mm 1 mps 751 mmHg 68%
    12:00 +8°C° 0 mm 1 mps 751 mmHg 64%
    13:00 +7°C° 0 mm 1 mps 751 mmHg 68%
    14:00 +6°C° 0 mm 2 mps 751 mmHg 72%
    15:00 +5°C° 0 mm 2 mps 751 mmHg 76%
    16:00 +5°C° 0 mm 2 mps 752 mmHg 78%
    17:00 +4°C° 0 mm 2 mps 752 mmHg 81%
    18:00 +4°C° 0 mm 2 mps 752 mmHg 83%
    19:00 +4°C° 0 mm 2 mps 753 mmHg 84%
    20:00 +3°C° 0 mm 2 mps 753 mmHg 86%
    21:00 +4°C° 0 mm 1 mps 753 mmHg 87%
    22:00 +4°C° 0 mm 1 mps 753 mmHg 88%
    23:00 +4°C° 0 mm 1 mps 753 mmHg 89%

    22 November, Thursday

    Time Temperature Precipitation Wind Pressure Humidity
    00:00 +3°C° 0 mm 1 mps 753 mmHg 89%
    01:00 +3°C° 0 mm 1 mps 753 mmHg 90%
    02:00 +3°C° 0 mm 1 mps 753 mmHg 90%
    03:00 +3°C° 0 mm 1 mps 753 mmHg 91%
    04:00 +3°C° 0 mm 1 mps 753 mmHg 91%
    05:00 +3°C° 0 mm 1 mps 753 mmHg 92%
    06:00 +3°C° 0 mm 1 mps 753 mmHg 92%
    07:00 +3°C° 0 mm 1 mps 754 mmHg 90%
    08:00 +4°C° 0 mm 1 mps 754 mmHg 88%
    09:00 +4°C° 0 mm 1 mps 754 mmHg 86%
    10:00 +4°C° 0 mm 2 mps 754 mmHg 82%
    11:00 +5°C° 0 mm 2 mps 754 mmHg 79%
    12:00 +6°C° 0 mm 2 mps 754 mmHg 75%
    13:00 +7°C° 0 mm 1 mps 754 mmHg 78%
    14:00 +7°C° 0 mm 1 mps 754 mmHg 81%
    15:00 +6°C° 0 mm 1 mps 754 mmHg 83%
    16:00 +5°C° 0 mm 1 mps 754 mmHg 86%
    17:00 +5°C° 0 mm 1 mps 754 mmHg 89%
    18:00 +3°C° 0 mm 2 mps 755 mmHg 92%
    19:00 +2°C° 0 mm 2 mps 755 mmHg 92%
    20:00 +2°C° 0 mm 2 mps 755 mmHg 93%
    21:00 +2°C° 0 mm 2 mps 755 mmHg 93%
    22:00 +2°C° 0 mm 2 mps 755 mmHg 93%
    23:00 +2°C° 0 mm 2 mps 756 mmHg 93%

    23 November, Friday

    Time Temperature Precipitation Wind Pressure Humidity
    00:00 +1°C° 0 mm 2 mps 756 mmHg 93%
    01:00 +2°C° 0 mm 2 mps 756 mmHg 93%
    02:00 +2°C° 0 mm 2 mps 756 mmHg 94%
    03:00 +2°C° 0 mm 2 mps 756 mmHg 94%
    04:00 +2°C° 0 mm 2 mps 756 mmHg 94%
    05:00 +2°C° 0 mm 2 mps 756 mmHg 94%
    06:00 +2°C° 0 mm 2 mps 756 mmHg 94%
    07:00 +3°C° 0 mm 2 mps 756 mmHg 90%
    08:00 +4°C° 0 mm 2 mps 756 mmHg 87%
    09:00 +5°C° 0 mm 2 mps 756 mmHg 83%
    10:00 +6°C° 0 mm 2 mps 756 mmHg 79%
    11:00 +8°C° 0 mm 2 mps 755 mmHg 75%
    12:00 +9°C° 0 mm 2 mps 755 mmHg 71%
    13:00 +9°C° 0.1 mm 2 mps 755 mmHg 75%
    14:00 +8°C° 0.1 mm 2 mps 755 mmHg 78%
    15:00 +8°C° 0.1 mm 2 mps 754 mmHg 82%
    16:00 +7°C° 0 mm 2 mps 754 mmHg 84%
    17:00 +6°C° 0 mm 2 mps 754 mmHg 86%
    18:00 +5°C° 0 mm 2 mps 754 mmHg 89%
    19:00 +5°C° 0 mm 2 mps 754 mmHg 89%
    20:00 +5°C° 0 mm 2 mps 754 mmHg 89%
    21:00 +4°C° 0 mm 2 mps 754 mmHg 88%
    22:00 +4°C° 0 mm 2 mps 754 mmHg 89%
    23:00 +4°C° 0 mm 2 mps 753 mmHg 89%

    24 November, Saturday

    Time Temperature Precipitation Wind Pressure Humidity
    00:00 +5°C° 0 mm 1 mps 753 mmHg 89%
    01:00 +5°C° 0 mm 1 mps 753 mmHg 90%
    02:00 +5°C° 0 mm 1 mps 753 mmHg 91%
    03:00 +5°C° 0 mm 1 mps 753 mmHg 91%
    04:00 +5°C° 0 mm 1 mps 753 mmHg 92%
    05:00 +5°C° 0 mm 1 mps 753 mmHg 93%
    06:00 +5°C° 0 mm 1 mps 753 mmHg 94%
    07:00 +4°C° 0 mm 2 mps 753 mmHg 93%
    08:00 +5°C° 0 mm 2 mps 753 mmHg 92%
    09:00 +6°C° 0 mm 2 mps 753 mmHg 92%
    10:00 +6°C° 0.1 mm 2 mps 753 mmHg 90%
    11:00 +7°C° 0.1 mm 3 mps 753 mmHg 88%
    12:00 +8°C° 0.1 mm 3 mps 753 mmHg 86%
    13:00 +8°C° 0.1 mm 3 mps 753 mmHg 88%
    14:00 +8°C° 0.1 mm 2 mps 753 mmHg 90%
    15:00 +7°C° 0.1 mm 2 mps 753 mmHg 92%
    16:00 +7°C° 0 mm 2 mps 753 mmHg 92%
    17:00 +7°C° 0 mm 2 mps 753 mmHg 93%
    18:00 +7°C° 0 mm 2 mps 754 mmHg 93%
    19:00 +6°C° 0 mm 2 mps 754 mmHg 94%
    20:00 +5°C° 0 mm 2 mps 754 mmHg 94%
    21:00 +5°C° 0 mm 2 mps 754 mmHg 95%
    22:00 +4°C° 0 mm 2 mps 754 mmHg 95%
    23:00 +4°C° 0 mm 2 mps 754 mmHg 95%
    Show more